[[{"header":{"parameterUnit":"m.s-1","parameterCategory":1,"la1":30.2991,"la2":30.254,"lo1":-89.0895,"lo2":-89.0444,"dy":0.0017,"dx":0.0017,"nx":28,"ny":28,"refTime":"2025-08-16T09:00:00:Z","depth":0,"parameterNumber":2,"parameterNumberName":"U-component_of_WINDS"},"data":[0,0,0,0,0,0,0,0,0,0,0,0,0,0,0,0,0,0,0,0,0,0,0,0,0,0,0,0,0,0,0,0,0,0,0,0,0,0,0,0,0,0,0,0,0,0,0,0,0,0,0,0,0,0,0,0,0,0,1.1664,1.1666,0,1.182,1.1822,1.1824,1.1856,1.1855,1.1854,1.1853,1.202,1.2025,1.203,0,0,0,0,0,0,0,0,0,0,0,0,0,1.1399,1.1404,1.1664,1.1666,1.1668,1.182,1.1822,1.1824,1.1856,1.1855,1.1854,1.1852,1.2018,1.2024,1.2031,0,0,0,0,0,0,0,0,0,0,0,0,0,1.1531,1.1405,1.1664,1.1702,1.1707,1.182,1.1822,1.1825,1.1857,1.1855,1.1853,1.1852,1.2016,1.2024,1.2032,1.2119,0,0,1.2057,1.2061,0,0,0,0,0,0,0,0,1.1523,1.154,1.1695,1.17,1.1706,1.1817,1.179,1.1924,1.1857,1.18,1.1853,1.1851,1.1954,1.1967,1.2001,1.2127,1.2134,1.2058,1.2063,1.2067,1.2069,0,0,0,0,0,0,0,1.1514,1.1534,1.1726,1.1697,1.1704,1.1713,1.173,1.1815,1.1886,1.1805,1.1808,1.1825,1.1957,1.1993,1.2005,1.2137,1.2058,1.2065,1.207,1.2074,1.234,1.2342,0,0,0,0,0,0,1.1497,1.1526,1.1721,1.1731,1.1608,1.1719,1.1738,1.1783,1.1885,1.1898,1.1827,1.1826,1.1979,1.1995,1.2011,1.2118,1.2067,1.2074,1.2079,1.2338,1.234,1.2343,0,0,0,0,0,0,1.1491,1.1514,1.1715,1.1629,1.1655,1.1726,1.1776,1.1787,1.1823,1.1901,1.1914,1.185,1.1978,1.1999,1.2091,1.2124,1.2078,1.2086,1.2335,1.2339,1.2341,1.2334,0,0,0,0,0,0,1.1484,1.1512,1.1545,1.163,1.166,1.1791,1.1778,1.1791,1.1836,1.1837,1.1926,1.194,1.1979,1.2078,1.2099,1.2135,1.2092,1.2333,1.2337,1.234,1.2331,1.2336,1.234,0,0,0,0,0,1.1474,1.1539,1.1546,1.157,1.1702,1.1793,1.181,1.1852,1.1839,1.1873,1.1923,1.1937,1.2117,1.2087,1.2111,1.215,1.2331,1.2336,1.234,1.2329,1.2335,1.234,0,0,0,0,0,0,1.1459,1.1551,1.156,1.1654,1.1715,1.1798,1.1843,1.1857,1.1925,1.1924,1.1975,1.1994,1.2083,1.2126,1.2091,1.2239,1.2223,1.2233,1.2207,1.2213,1.2218,1.2206,1.2099,0,0,0,0,0,1.1466,1.153,1.1608,1.1683,1.1712,1.1772,1.1813,1.1839,1.1906,1.1933,1.1989,1.2055,1.2126,1.2172,1.2243,1.2338,1.2357,1.2376,1.238,1.2384,1.2391,1.2443,1.2452,1.2358,1.2358,1.2358,0,0,1.1483,1.154,1.1578,1.1681,1.1732,1.1798,1.1794,1.1865,1.1915,1.1945,1.2033,1.2077,1.2154,1.2246,1.229,1.2285,1.2421,1.239,1.2392,1.2398,1.2449,1.2458,1.2466,1.2361,1.2361,1.236,0,0,1.1546,1.1596,1.1663,1.1713,1.1788,1.1827,1.1842,1.1923,1.1952,1.2042,1.2064,1.2125,1.2248,1.23,1.2343,1.2423,1.2438,1.2445,1.2469,1.2518,1.2526,1.2533,1.256,1.2569,1.2452,1.2452,1.2452,0,1.1557,1.1656,1.1696,1.1765,1.1809,1.1836,1.1904,1.1952,1.2047,1.2077,1.2069,1.2221,1.2275,1.2379,1.2398,1.2433,1.2453,1.2435,1.2521,1.2528,1.2535,1.2562,1.2572,1.2453,1.2453,1.2453,1.2453,0,1.1666,1.1734,1.1779,1.1867,1.1916,1.1985,1.2036,1.2082,1.2103,1.2143,1.2233,1.2298,1.238,1.2407,1.2431,1.2515,1.2509,1.251,1.2496,1.2544,1.2569,1.258,1.2453,1.2453,1.2453,1.2453,0,0,1.1726,1.1832,1.1848,1.1887,1.1971,1.2025,1.2095,1.2172,1.221,1.2275,1.2334,1.2435,1.2436,1.2484,1.2514,1.2557,1.2614,1.2553,1.2556,1.2561,1.271,1.2707,1.2719,1.2624,1.2627,1.2628,1.2703,0,1.1798,1.192,1.1957,1.206,1.2123,1.2148,1.2209,1.2267,1.2306,1.2366,1.241,1.2479,1.2476,1.2505,1.2549,1.2598,1.2645,1.2593,1.2681,1.2684,1.266,1.2732,1.2731,1.2798,1.2713,1.2715,1.2716,0,1.1899,1.1961,1.207,1.2143,1.2171,1.2224,1.2297,1.2355,1.2421,1.2446,1.2498,1.2523,1.2597,1.2578,1.2681,1.2645,1.2683,1.2712,1.2716,1.2725,1.2703,1.2743,1.2821,1.283,1.2733,1.2732,1.2731,0,1.193,1.2042,1.212,1.2153,1.2241,1.2277,1.2316,1.2381,1.2424,1.2489,1.2518,1.2591,1.2631,1.2688,1.2732,1.2714,1.283,1.2815,1.2853,1.2852,1.2877,1.2875,1.2961,1.2902,1.2902,1.2902,1.2902,0,1.2006,1.2072,1.2134,1.2183,1.2256,1.2299,1.2371,1.2411,1.2468,1.2525,1.2552,1.2606,1.2661,1.2722,1.2757,1.2836,1.2854,1.2877,1.2885,1.2874,1.2871,1.29,1.2896,1.2905,1.2904,1.2904,1.2903,0,1.2053,1.2098,1.2185,1.226,1.228,1.2331,1.2396,1.2444,1.2482,1.2554,1.2574,1.2635,1.2708,1.2757,1.2852,1.2875,1.296,1.2968,1.2937,1.2941,1.2975,1.2971,1.3082,1.3099,1.303,1.303,1.3031,0,1.2099,1.2149,1.2228,1.2267,1.2304,1.2368,1.2411,1.2455,1.2499,1.2577,1.2616,1.269,1.2751,1.2866,1.292,1.2992,1.3002,1.3036,1.3013,1.2999,1.3001,1.2997,1.3002,1.3039,1.304,1.304,1.3041,0,1.2174,1.2193,1.2254,1.2322,1.2372,1.2428,1.2485,1.2516,1.2569,1.2618,1.2691,1.2738,1.2832,1.2906,1.2982,1.3023,1.3041,1.3047,1.306,1.3048,1.3027,1.3038,1.2945,1.3045,1.3044,1.3044,1.3044,1.3044,1.2222,1.2266,1.2328,1.2394,1.244,1.2492,1.254,1.2583,1.2644,1.2722,1.2744,1.282,1.2884,1.2988,1.303,1.3091,1.3088,1.3106,1.3111,1.3115,1.3114,1.3017,1.3105,1.3105,1.3105,1.3105,1.3105,0,1.2297,1.2337,1.2397,1.2474,1.2526,1.2535,1.2598,1.2641,1.2706,1.2763,1.2822,1.2905,1.2976,1.3034,1.3106,1.3144,1.3153,1.3161,1.3159,1.3168,1.3113,1.3094,1.3152,1.3152,1.3152,1.3152,1.3152,1.3152,1.2342,1.2418,1.2444,1.2542,1.2583,1.2655,1.2689,1.2737,1.2783,1.2873,1.2931,1.2967,1.3025,1.3101,1.3166,1.3182,1.3207,1.3212,1.323,1.3177,1.3172,1.3167,1.3149,1.3218,1.3218,1.3279,1.328,1.328]},{"header":{"parameterUnit":"m.s-1","parameterCategory":1,"la1":30.2991,"la2":30.254,"lo1":-89.0895,"lo2":-89.0444,"dy":0.0017,"dx":0.0017,"nx":28,"ny":28,"refTime":"2025-08-16T09:00:00:Z","depth":0,"parameterNumber":3,"parameterNumberName":"V-component_of_WINDS"},"data":[0,0,0,0,0,0,0,0,0,0,0,0,0,0,0,0,0,0,0,0,0,0,0,0,0,0,0,0,0,0,0,0,0,0,0,0,0,0,0,0,0,0,0,0,0,0,0,0,0,0,0,0,0,0,0,0,0,0,2.4502,2.4503,0,2.4579,2.458,2.4581,2.4583,2.4582,2.4581,2.458,2.4652,2.4655,2.4658,0,0,0,0,0,0,0,0,0,0,0,0,0,2.4347,2.4349,2.4502,2.4503,2.4504,2.4579,2.458,2.4581,2.4583,2.4582,2.4581,2.458,2.4651,2.4655,2.4658,0,0,0,0,0,0,0,0,0,0,0,0,0,2.4418,2.435,2.4502,2.4514,2.4516,2.4579,2.458,2.4581,2.4583,2.4582,2.4581,2.4579,2.465,2.4654,2.4658,2.4712,0,0,2.4671,2.4673,0,0,0,0,0,0,0,0,2.4414,2.4423,2.4511,2.4513,2.4516,2.457,2.4552,2.4625,2.4584,2.4558,2.458,2.4579,2.4626,2.4632,2.4649,2.4715,2.4718,2.4672,2.4674,2.4676,2.4677,0,0,0,0,0,0,0,2.4409,2.442,2.4532,2.4513,2.4515,2.4513,2.4521,2.4566,2.4598,2.456,2.456,2.457,2.4626,2.4645,2.4651,2.472,2.4671,2.4675,2.4678,2.4679,2.4828,2.4829,0,0,0,0,0,0,2.4403,2.4416,2.453,2.4535,2.4461,2.4517,2.4526,2.4554,2.4598,2.4603,2.4571,2.4569,2.4639,2.4646,2.4653,2.4716,2.4676,2.468,2.4682,2.4827,2.4828,2.483,0,0,0,0,0,0,2.4399,2.4413,2.4527,2.4475,2.449,2.4521,2.4552,2.4556,2.4575,2.4606,2.4611,2.4584,2.4638,2.4647,2.4697,2.4718,2.4682,2.4685,2.4825,2.4827,2.4829,2.4843,0,0,0,0,0,0,2.4395,2.4412,2.4435,2.4476,2.4493,2.4572,2.4553,2.4559,2.4583,2.4582,2.462,2.4625,2.4637,2.469,2.4701,2.4723,2.4689,2.4823,2.4826,2.4829,2.484,2.4845,2.4849,0,0,0,0,0,2.4389,2.4435,2.4436,2.445,2.4523,2.4573,2.4582,2.4598,2.4585,2.4606,2.4626,2.4624,2.4714,2.4696,2.4707,2.4731,2.4822,2.4825,2.4828,2.4838,2.4844,2.4849,0,0,0,0,0,0,2.4395,2.4441,2.4443,2.4504,2.4535,2.4574,2.4602,2.4604,2.4637,2.4635,2.465,2.4658,2.4706,2.4724,2.4702,2.4783,2.4766,2.4772,2.477,2.4775,2.478,2.4774,2.4692,0,0,0,0,0,2.4403,2.4443,2.448,2.453,2.4546,2.4571,2.4594,2.4603,2.4634,2.4647,2.467,2.4698,2.4733,2.4755,2.4789,2.4843,2.4849,2.4865,2.4869,2.4872,2.4877,2.4902,2.4908,2.4841,2.4841,2.4841,0,0,2.4421,2.4451,2.4475,2.4532,2.4557,2.4594,2.4582,2.4623,2.465,2.4652,2.47,2.4718,2.475,2.4801,2.4824,2.4817,2.4897,2.4877,2.4879,2.4881,2.4906,2.4912,2.4918,2.4843,2.4842,2.4842,0,0,2.4471,2.45,2.4543,2.4568,2.4606,2.4622,2.4632,2.467,2.4682,2.4731,2.4732,2.4762,2.4823,2.4845,2.4864,2.4918,2.4916,2.4928,2.495,2.4975,2.498,2.4985,2.5001,2.5007,2.4933,2.4933,2.4933,0,2.4488,2.4547,2.4564,2.4605,2.4628,2.4633,2.4674,2.4696,2.4743,2.4757,2.4748,2.4821,2.4844,2.4898,2.4911,2.4927,2.4936,2.4924,2.4979,2.4983,2.4988,2.5004,2.501,2.4934,2.4934,2.4934,2.4934,0,2.4563,2.4604,2.4634,2.4679,2.4705,2.4746,2.4766,2.479,2.4795,2.481,2.4857,2.4884,2.4921,2.4935,2.4941,2.4988,2.4982,2.4976,2.4959,2.4995,2.501,2.5016,2.4935,2.4935,2.4935,2.4934,0,0,2.4622,2.4674,2.4684,2.4703,2.4743,2.4773,2.4812,2.485,2.4868,2.4899,2.4929,2.4978,2.4972,2.4993,2.5001,2.5023,2.506,2.5013,2.5014,2.5019,2.511,2.5113,2.512,2.5059,2.506,2.5062,2.5106,0,2.4674,2.4746,2.476,2.4821,2.4855,2.4858,2.4891,2.4917,2.4932,2.4961,2.4976,2.501,2.5,2.5013,2.5035,2.5051,2.5078,2.5048,2.5084,2.5085,2.5074,2.5128,2.5132,2.5173,2.5112,2.5113,2.5114,0,2.4747,2.4779,2.4843,2.4875,2.489,2.492,2.4954,2.4983,2.5011,2.5019,2.5042,2.5046,2.5082,2.5065,2.5112,2.5092,2.5107,2.5117,2.5118,2.5121,2.5101,2.5129,2.5187,2.5192,2.5124,2.5123,2.5122,0,2.4778,2.4838,2.4883,2.49,2.4939,2.4959,2.4976,2.5003,2.5023,2.5052,2.5064,2.5096,2.5113,2.5136,2.5147,2.5134,2.5193,2.5177,2.5198,2.5198,2.521,2.5208,2.5268,2.5223,2.5223,2.5223,2.5223,0,2.4835,2.4873,2.4898,2.4925,2.4966,2.4981,2.502,2.5036,2.5059,2.5087,2.5091,2.5117,2.5131,2.5158,2.5167,2.5203,2.5211,2.5217,2.5218,2.5215,2.5214,2.5224,2.5221,2.5224,2.5224,2.5224,2.5223,0,2.4878,2.4896,2.4945,2.4977,2.4986,2.5015,2.5041,2.5066,2.5079,2.5114,2.5123,2.5143,2.5175,2.5188,2.5227,2.5233,2.5273,2.5273,2.5264,2.5264,2.5283,2.528,2.535,2.5358,2.5309,2.531,2.531,0,2.4912,2.4941,2.4976,2.4996,2.5014,2.5045,2.5066,2.5079,2.51,2.5132,2.5152,2.5184,2.5209,2.5258,2.5275,2.5303,2.5303,2.5325,2.5307,2.5302,2.53,2.5297,2.5299,2.5328,2.5329,2.5329,2.5329,0,2.4969,2.4976,2.5007,2.5039,2.5064,2.509,2.5115,2.513,2.5147,2.517,2.5202,2.5222,2.5261,2.529,2.5319,2.5333,2.5333,2.5335,2.5341,2.5337,2.5329,2.5331,2.527,2.5333,2.5333,2.5332,2.5332,2.5332,2.5007,2.5032,2.5059,2.5092,2.5112,2.5135,2.5159,2.5175,2.5203,2.5236,2.5241,2.5275,2.5298,2.5337,2.5351,2.5376,2.537,2.5379,2.5381,2.5383,2.5383,2.5327,2.5381,2.5381,2.5381,2.5381,2.5381,0,2.5062,2.508,2.511,2.5144,2.5169,2.5168,2.5195,2.5214,2.5244,2.5267,2.5292,2.5326,2.5355,2.5373,2.54,2.5416,2.5416,2.5423,2.5421,2.5423,2.5388,2.5379,2.5422,2.5422,2.5422,2.5422,2.5422,2.5422,2.5094,2.5134,2.5143,2.5192,2.5208,2.5242,2.5257,2.5276,2.5294,2.5333,2.5357,2.5369,2.5388,2.5417,2.5441,2.5446,2.5454,2.5461,2.5464,2.543,2.5426,2.5422,2.5413,2.5463,2.5463,2.5497,2.5498,2.5498]}]]